EN

Hourly Weather Dzhuryn

Today, 25 October, Sunday

Time Temperature Precipitation Wind Pressure Humidity
00:00 +12°C° 0 mm 2 mps 740 mmHg 91%
01:00 +12°C° 0 mm 2 mps 741 mmHg 93%
02:00 +12°C° 0 mm 2 mps 741 mmHg 94%
03:00 +10°C° 0 mm 2 mps 741 mmHg 94%
04:00 +10°C° 0 mm 2 mps 741 mmHg 95%
05:00 +11°C° 0 mm 1 mps 741 mmHg 95%
06:00 +10°C° 0 mm 2 mps 741 mmHg 94%
07:00 +10°C° 0 mm 2 mps 742 mmHg 93%
08:00 +10°C° 0 mm 2 mps 742 mmHg 92%
09:00 +12°C° 0 mm 2 mps 742 mmHg 85%
10:00 +14°C° 0 mm 2 mps 742 mmHg 78%
11:00 +14°C° 0 mm 3 mps 742 mmHg 71%
12:00 +16°C° 0 mm 3 mps 742 mmHg 69%
13:00 +16°C° 0 mm 3 mps 742 mmHg 66%
14:00 +17°C° 0 mm 3 mps 742 mmHg 63%
15:00 +16°C° 0 mm 3 mps 741 mmHg 67%
16:00 +15°C° 0 mm 2 mps 741 mmHg 70%
17:00 +14°C° 0 mm 2 mps 741 mmHg 74%
18:00 +14°C° 0 mm 2 mps 741 mmHg 76%
19:00 +12°C° 0 mm 3 mps 741 mmHg 77%
20:00 +12°C° 0 mm 3 mps 742 mmHg 79%
21:00 +12°C° 0 mm 3 mps 742 mmHg 79%
22:00 +12°C° 0 mm 3 mps 741 mmHg 79%
23:00 +12°C° 0 mm 3 mps 741 mmHg 79%

Tomorrow, 26 October, Monday

Time Temperature Precipitation Wind Pressure Humidity
00:00 +12°C° 0 mm 3 mps 741 mmHg 80%
01:00 +11°C° 0 mm 3 mps 741 mmHg 80%
02:00 +11°C° 0 mm 3 mps 741 mmHg 81%
03:00 +11°C° 0 mm 3 mps 741 mmHg 83%
04:00 +11°C° 0 mm 3 mps 741 mmHg 85%
05:00 +10°C° 0 mm 3 mps 741 mmHg 86%
06:00 +11°C° 0 mm 4 mps 740 mmHg 85%
07:00 +11°C° 0 mm 4 mps 740 mmHg 84%
08:00 +11°C° 0 mm 4 mps 740 mmHg 83%
09:00 +13°C° 0 mm 4 mps 740 mmHg 78%
10:00 +14°C° 0 mm 4 mps 740 mmHg 72%
11:00 +15°C° 0 mm 4 mps 740 mmHg 67%
12:00 +17°C° 0 mm 4 mps 740 mmHg 65%
13:00 +17°C° 0 mm 5 mps 740 mmHg 62%
14:00 +17°C° 0 mm 5 mps 740 mmHg 60%
15:00 +17°C° 0 mm 4 mps 740 mmHg 64%
16:00 +16°C° 0 mm 3 mps 739 mmHg 68%
17:00 +14°C° 0 mm 3 mps 739 mmHg 73%
18:00 +14°C° 0 mm 3 mps 739 mmHg 75%
19:00 +13°C° 0 mm 3 mps 740 mmHg 77%
20:00 +13°C° 0 mm 3 mps 740 mmHg 79%
21:00 +13°C° 0 mm 3 mps 740 mmHg 80%
22:00 +12°C° 0 mm 3 mps 740 mmHg 81%
23:00 +12°C° 0 mm 3 mps 740 mmHg 81%

Day after tomorrow, 27 October, Tuesday

Time Temperature Precipitation Wind Pressure Humidity
00:00 +11°C° 0 mm 3 mps 740 mmHg 83%
01:00 +11°C° 0 mm 3 mps 740 mmHg 85%
02:00 +10°C° 0 mm 3 mps 740 mmHg 87%
03:00 +10°C° 0 mm 3 mps 740 mmHg 88%
04:00 +10°C° 0 mm 3 mps 740 mmHg 89%
05:00 +10°C° 0 mm 3 mps 740 mmHg 90%
06:00 +10°C° 0 mm 3 mps 740 mmHg 89%
07:00 +10°C° 0 mm 3 mps 740 mmHg 89%
08:00 +10°C° 0 mm 3 mps 741 mmHg 88%
09:00 +12°C° 0 mm 3 mps 741 mmHg 82%
10:00 +13°C° 0 mm 3 mps 741 mmHg 76%
11:00 +16°C° 0 mm 3 mps 741 mmHg 70%
12:00 +17°C° 0 mm 3 mps 741 mmHg 68%
13:00 +17°C° 0 mm 3 mps 741 mmHg 66%
14:00 +18°C° 0 mm 3 mps 740 mmHg 63%
15:00 +17°C° 0 mm 3 mps 740 mmHg 67%
16:00 +16°C° 0 mm 3 mps 740 mmHg 71%
17:00 +14°C° 0 mm 3 mps 740 mmHg 75%
18:00 +14°C° 0 mm 3 mps 740 mmHg 77%
19:00 +13°C° 0 mm 3 mps 740 mmHg 78%
20:00 +13°C° 0 mm 4 mps 740 mmHg 79%
21:00 +13°C° 0 mm 4 mps 741 mmHg 81%
22:00 +13°C° 0 mm 4 mps 741 mmHg 82%
23:00 +12°C° 0 mm 4 mps 741 mmHg 84%

28 October, Wednesday

Time Temperature Precipitation Wind Pressure Humidity
00:00 +12°C° 0 mm 4 mps 741 mmHg 86%
01:00 +12°C° 0 mm 4 mps 741 mmHg 89%
02:00 +11°C° 0 mm 4 mps 741 mmHg 92%
03:00 +11°C° 0 mm 4 mps 741 mmHg 92%
04:00 +11°C° 0 mm 4 mps 741 mmHg 92%
05:00 +10°C° 0 mm 4 mps 741 mmHg 93%
06:00 +10°C° 0 mm 4 mps 741 mmHg 90%
07:00 +10°C° 0 mm 4 mps 741 mmHg 88%
08:00 +10°C° 0 mm 4 mps 741 mmHg 85%
09:00 +12°C° 0 mm 4 mps 741 mmHg 78%
10:00 +13°C° 0 mm 4 mps 742 mmHg 72%
11:00 +14°C° 0 mm 4 mps 742 mmHg 65%
12:00 +15°C° 0 mm 4 mps 742 mmHg 63%
13:00 +17°C° 0 mm 4 mps 741 mmHg 61%
14:00 +17°C° 0 mm 4 mps 741 mmHg 59%
15:00 +16°C° 0 mm 3 mps 741 mmHg 62%
16:00 +14°C° 0 mm 3 mps 741 mmHg 64%
17:00 +13°C° 0 mm 3 mps 741 mmHg 67%
18:00 +12°C° 0 mm 3 mps 741 mmHg 68%
19:00 +12°C° 0 mm 3 mps 741 mmHg 69%
20:00 +11°C° 0 mm 3 mps 742 mmHg 70%
21:00 +11°C° 0 mm 3 mps 742 mmHg 72%
22:00 +10°C° 0 mm 3 mps 742 mmHg 74%
23:00 +10°C° 0 mm 3 mps 742 mmHg 76%

29 October, Thursday

Time Temperature Precipitation Wind Pressure Humidity
00:00 +9°C° 0 mm 2 mps 741 mmHg 77%
01:00 +9°C° 0 mm 2 mps 741 mmHg 79%
02:00 +9°C° 0 mm 2 mps 741 mmHg 80%
03:00 +8°C° 0 mm 2 mps 741 mmHg 81%
04:00 +8°C° 0 mm 2 mps 741 mmHg 83%
05:00 +8°C° 0 mm 2 mps 741 mmHg 84%
06:00 +8°C° 0 mm 2 mps 741 mmHg 84%
07:00 +8°C° 0 mm 2 mps 741 mmHg 83%
08:00 +8°C° 0 mm 2 mps 741 mmHg 82%
09:00 +10°C° 0 mm 2 mps 742 mmHg 76%
10:00 +12°C° 0 mm 2 mps 742 mmHg 69%
11:00 +14°C° 0 mm 2 mps 742 mmHg 63%
12:00 +15°C° 0 mm 1 mps 742 mmHg 60%
13:00 +15°C° 0 mm 1 mps 742 mmHg 58%
14:00 +15°C° 0 mm 0 mps 741 mmHg 55%
15:00 +14°C° 0 mm 0 mps 741 mmHg 60%
16:00 +13°C° 0 mm 0 mps 742 mmHg 64%
17:00 +12°C° 0 mm 0 mps 742 mmHg 68%
18:00 +12°C° 0 mm 0 mps 742 mmHg 70%
19:00 +11°C° 0 mm 0 mps 742 mmHg 73%
20:00 +11°C° 0 mm 0 mps 742 mmHg 75%
21:00 +11°C° 0 mm 0 mps 742 mmHg 76%
22:00 +10°C° 0 mm 0 mps 743 mmHg 78%
23:00 +10°C° 0 mm 0 mps 743 mmHg 79%

30 October, Friday

Time Temperature Precipitation Wind Pressure Humidity
00:00 +11°C° 0 mm 1 mps 743 mmHg 80%
01:00 +12°C° 0 mm 1 mps 743 mmHg 82%
02:00 +12°C° 0 mm 1 mps 743 mmHg 84%
03:00 +10°C° 0 mm 2 mps 744 mmHg 86%
04:00 +10°C° 0 mm 2 mps 744 mmHg 89%
05:00 +9°C° 0 mm 2 mps 744 mmHg 92%
06:00 +9°C° 0 mm 2 mps 744 mmHg 92%
07:00 +9°C° 0 mm 2 mps 744 mmHg 92%
08:00 +9°C° 0 mm 2 mps 745 mmHg 92%
09:00 +12°C° 0 mm 2 mps 745 mmHg 86%
10:00 +13°C° 0 mm 2 mps 745 mmHg 79%
11:00 +14°C° 0 mm 3 mps 745 mmHg 72%
12:00 +16°C° 0 mm 2 mps 745 mmHg 67%
13:00 +17°C° 0 mm 2 mps 745 mmHg 62%
14:00 +17°C° 0 mm 2 mps 745 mmHg 56%
15:00 +16°C° 0 mm 2 mps 745 mmHg 60%
16:00 +15°C° 0 mm 2 mps 745 mmHg 63%
17:00 +14°C° 0 mm 2 mps 745 mmHg 66%
18:00 +13°C° 0 mm 1 mps 746 mmHg 69%
19:00 +13°C° 0 mm 1 mps 746 mmHg 71%
20:00 +12°C° 0 mm 1 mps 746 mmHg 74%
21:00 +12°C° 0 mm 1 mps 746 mmHg 75%
22:00 +12°C° 0 mm 1 mps 746 mmHg 77%
23:00 +11°C° 0 mm 1 mps 747 mmHg 78%
Show more